Overview Statistics Trail Chart Weather Telemetry Raw packets
 

This is the latest recevied weather packets stored in our database for station/object IN3MWE-10. If no packets are shown the sender has not sent any weather packets the latest 10 day(s).

<< 14 15 16 17 18 19 20 >>
Time Temp. Humidity Pressure Rain* Wind** Luminosity Snow
1788318312 19.44° C 100% 985 hPa - - - -
1788317432 19.44° C 100% 985 hPa - - - -
1788316531 19.44° C 100% 985 hPa - - - -
1788315631 19.44° C 100% 984.9 hPa - - - -
1788314731 19.44° C 100% 984.8 hPa - - - -
1788313831 20° C 100% 984.7 hPa - - - -
1788312931 20° C 100% 984.7 hPa - - - -
1788312031 20° C 100% 984.7 hPa - - - -
1788311130 20° C 100% 984.6 hPa - - - -
1788310230 20° C 100% 984.6 hPa - - - -
1788309330 20.56° C 100% 984.7 hPa - - - -
1788308430 20.56° C 100% 984.4 hPa - - - -
1788307530 21.11° C 100% 984.5 hPa - - - -
1788306630 21.11° C 97% 984.5 hPa - - - -
1788305729 21.11° C 95% 984.5 hPa - - - -
1788304829 21.67° C 97% 984.3 hPa - - - -
1788303929 21.67° C 96% 984.3 hPa - - - -
1788303029 21.11° C 100% 984.3 hPa - - - -
1788302128 21.67° C 100% 984.2 hPa - - - -
1788301228 21.67° C 100% 984 hPa - - - -
1788300328 21.67° C 100% 983.9 hPa - - - -
1788299428 21.11° C 100% 983.7 hPa - - - -
1788298528 21.11° C 100% 983.5 hPa - - - -
1788297628 21.67° C 100% 983.5 hPa - - - -
1788296728 21.67° C 100% 983.6 hPa - - - -

* Rain since midnight (hover to see other rain measurements)
** Current wind speed in m/s (hover to see current wind gust speed)